Cleveland, OH

1:38 PM EDT on October 18, 2017 (GMT -0400)
Cleveland-Hopkins International

Weather History for KCLE - April, 2012

Change the Weather History Date:

Friday, April 20, 2012

  Actual Average Record
Temperature  
Mean Temperature 61 °F 52 °F  
Max Temperature 78 °F 61 °F 83 °F (1985)
Min Temperature 43 °F 42 °F 23 °F (1904)
Degree Days  
Heating Degree Days 4 14  
Month to date heating degree days 303 347  
Since 1 July heating degree days 4376 5390  
Cooling Degree Days 0 0  
Month to date cooling degree days 4 0  
Year to date cooling degree days 28 1  
Growing Degree Days 13 (Base 50)    
Moisture  
Dew Point 46 °F    
Average Humidity 60    
Maximum Humidity 83    
Minimum Humidity 36    
Precipitation  
Precipitation 0.15 in 0.11 in 1.01 in (1986)
Month to date precipitation 0.48 2.41  
Year to date precipitation 9.83 10.40  
Snow  
Snow 0.00 in 0.00 in - ()
Month to date snowfall 0.4 3.0  
Since 1 July snowfall 38.9 67.8  
Snow Depth 0.00 in    
Sea Level Pressure  
Sea Level Pressure 29.80 in    
Wind  
Wind Speed 13 mph (SSW)    
Max Wind Speed 26 mph    
Max Gust Speed 32 mph    
Visibility 10 miles    
Events Rain    
T = Trace of Precipitation, MM = Missing Value Source: NWS Daily Summary

Daily Weather History Graph

Daily Weather History Graph

Search for Another Location

Airport or City:

Trip Planner

Search our weather history database for the weather conditions in past years. The results will help you decide how hot, cold, wet, or windy it might be!

Date:

Astronomy

Apr. 20, 2012 Rise Set
Actual Time 6:39 AM EDT 8:13 PM EDT
Civil Twilight 6:10 AM EDT 8:42 PM EDT
Nautical Twilight 5:35 AM EDT 9:18 PM EDT
Astronomical Twilight 4:57 AM EDT 9:55 PM EDT
Moon 6:02 AM EDT (4/20) 7:57 PM EDT (4/20)
Length of Visible Light 14h 32m
Length of Day
13h 34m
Waning Crescent, 0% of the Moon is Illuminated
Apr 20
Waning Crescent
Apr 21
New
Apr 29
First Quarter
May 5
Full
May 12
Last Quarter

Hourly Weather History & Observations

Time (EDT) Temp. Windchill Dew Point Humidity Pressure Visibility Wind Dir Wind Speed Gust Speed Precip Events Conditions
12:51 AM 64.0 °F - 44.1 °F 48% 29.92 in 10.0 mi South 10.4 mph - N/A   Overcast
1:51 AM 62.1 °F - 44.1 °F 52% 29.91 in 10.0 mi South 9.2 mph - N/A   Mostly Cloudy
2:51 AM 60.1 °F - 44.1 °F 55% 29.89 in 10.0 mi South 5.8 mph - N/A   Mostly Cloudy
3:51 AM 57.9 °F - 43.0 °F 58% 29.86 in 10.0 mi South 8.1 mph - N/A   Mostly Cloudy
4:51 AM 55.4 °F - 42.8 °F 63% 29.85 in 10.0 mi South 8.1 mph - N/A   Mostly Cloudy
5:51 AM 61.0 °F - 42.1 °F 50% 29.81 in 10.0 mi South 12.7 mph - N/A   Mostly Cloudy
6:51 AM 59.0 °F - 43.0 °F 55% 29.84 in 10.0 mi South 9.2 mph - N/A   Mostly Cloudy
7:51 AM 60.8 °F - 44.6 °F 55% 29.85 in 10.0 mi South 8.1 mph - N/A   Scattered Clouds
8:51 AM 62.1 °F - 44.1 °F 52% 29.83 in 10.0 mi South 11.5 mph - N/A   Scattered Clouds
9:51 AM 66.0 °F - 46.9 °F 50% 29.82 in 10.0 mi SSW 13.8 mph - N/A   Mostly Cloudy
10:51 AM 69.1 °F - 48.0 °F 47% 29.80 in 10.0 mi SSW 16.1 mph 23.0 mph N/A   Mostly Cloudy
11:51 AM 69.1 °F - 48.0 °F 47% 29.79 in 10.0 mi South 12.7 mph 20.7 mph N/A   Mostly Cloudy
12:51 PM 73.0 °F - 50.0 °F 44% 29.76 in 10.0 mi South 15.0 mph 23.0 mph N/A   Scattered Clouds
1:51 PM 75.0 °F - 50.0 °F 41% 29.73 in 10.0 mi South 17.3 mph 24.2 mph N/A   Mostly Cloudy
2:51 PM 77.0 °F - 48.2 °F 36% 29.73 in 10.0 mi SSW 13.8 mph 24.2 mph N/A   Mostly Cloudy
3:51 PM 75.9 °F - 48.9 °F 38% 29.71 in 10.0 mi SW 18.4 mph 28.8 mph N/A   Mostly Cloudy
4:51 PM 75.9 °F - 48.9 °F 38% 29.70 in 10.0 mi SSW 18.4 mph 26.5 mph N/A   Mostly Cloudy
5:51 PM 75.0 °F - 48.9 °F 40% 29.70 in 10.0 mi SW 16.1 mph 28.8 mph N/A   Mostly Cloudy
6:51 PM 73.9 °F - 48.9 °F 41% 29.70 in 10.0 mi SW 16.1 mph 21.9 mph N/A   Overcast
7:51 PM 60.1 °F - 48.9 °F 67% 29.75 in 10.0 mi NNW 19.6 mph 24.2 mph N/A   Overcast
7:58 PM 59.0 °F - 48.2 °F 67% 29.75 in 10.0 mi North 20.7 mph 29.9 mph N/A   Overcast
8:51 PM 55.0 °F - 48.0 °F 77% 29.79 in 10.0 mi North 10.4 mph - N/A   Overcast
9:16 PM 53.6 °F - 46.4 °F 77% 29.82 in 10.0 mi North 11.5 mph - N/A   Overcast
9:51 PM 52.0 °F - 46.0 °F 80% 29.81 in 10.0 mi NNE 10.4 mph - N/A   Overcast
10:14 PM 51.8 °F - 46.4 °F 82% 29.81 in 10.0 mi NNE 13.8 mph - N/A   Mostly Cloudy
10:38 PM 51.8 °F - 44.6 °F 76% 29.81 in 10.0 mi North 12.7 mph - N/A   Overcast
10:51 PM 50.0 °F - 44.6 °F 82% 29.81 in 10.0 mi North 10.4 mph - N/A   Overcast
11:02 PM 48.2 °F - 44.6 °F 87% 29.82 in 10.0 mi North 10.4 mph - 0.00 in Rain Light Rain
11:51 PM 45.0 °F 39.3 °F 43.0 °F 93% 29.85 in 10.0 mi NW 11.5 mph 19.6 mph 0.02 in Rain Light Rain